CAPE
0 0 0 0 0 0 0 0 0 0 0 0 33 82 125 390 701 1065 660 630 999 1360 1321 1190 480 399 430 494 339 52 45 224
0 0 0 0 1 0 0 0 0 0 0 0 0 0 87 187 566 1139 556 595 926 1039 1058 594 323 331 368 425 325 118 118 118
0 0 0 0 0 0 4 0 0 0 0 0 0 0 0 187 590 1022 561 389 720 997 1095 355 284 212 236 318 258 128 132 46
0 0 0 0 0 4 8 28 5 0 0 0 0 0 0 20 526 799 934 189 162 868 980 296 281 40 51 106 107 34 28 5
0 0 0 0 0 8 16 29 13 2 13 23 11 43 59 56 332 779 1080 457 99 443 585 328 296 97 19 64 0 0 0 0
0 0 0 0 0 8 13 16 23 21 1 7 11 13 5 95 316 596 882 667 322 319 378 386 286 276 238 63 0 0 0 0
0 0 0 1 2 2 11 13 10 14 25 0 0 0 0 0 21 386 482 591 535 445 389 516 446 403 273 99 22 9 0 0
0 0 0 0 0 0 6 19 28 23 2 0 0 0 0 0 0 107 405 533 616 570 503 567 470 335 55 69 3 37 92 11
14 2 4 3 2 2 17 18 8 0 0 0 0 0 0 0 0 5 164 474 476 547 578 563 364 8 6 8 0 84 176 46
102 66 17 34 16 1 15 12 0 0 0 0 0 0 0 0 0 0 17 342 491 546 598 478 44 0 1 0 42 163 179 154
103 65 33 24 0 0 6 22 0 1 0 0 0 0 0 0 0 38 146 419 551 582 508 149 12 0 15 68 66 80 107 172
56 23 32 73 46 4 11 7 0 0 0 0 0 0 11 1 3 162 303 522 604 436 186 103 64 29 142 169 202 123 101 135
7 23 19 88 8 0 0 16 0 0 0 0 0 34 187 165 54 211 328 427 481 304 106 92 281 294 170 253 262 231 151 87
21 49 52 2 0 0 88 0 0 0 0 0 50 358 237 321 333 313 322 307 383 270 196 313 648 777 712 651 605 424 287 352
82 177 42 0 5 0 0 0 0 31 93 140 297 290 302 413 475 428 383 309 291 373 642 874 920 1100 993 1050 1002 856 1205 789
0 50 0 0 0 0 0 0 10 13 17 188 442 249 337 469 500 492 486 475 484 550 587 594 615 804 1004 1132 1383 885 593 290
0 0 0 0 0 0 0 0 0 0 24 255 316 181 116 89 122 166 232 256 256 322 455 557 773 857 767 685 457 440 431 452
0 0 0 0 0 0 0 0 0 71 135 163 139 26 0 8 128 193 321 303 376 407 459 473 376 383 455 514 546 579 520 396
0 0 0 0 0 0 0 0 0 11 9 1 8 1 2 94 228 75 279 380 503 490 385 385 334 390 373 427 430 475 426 303
CIN
0 0 0 0 0 0 0 0 0 0 0 0 -43 -71 -100 -94 -74 -60 -127 -98 -72 -52 -73 -69 -102 -114 -109 -101 -123 -209 -229 -111
0 0 0 0 -3 0 0 0 0 0 0 0 0 0 -52 -77 -70 -41 -117 -87 -59 -59 -93 -114 -128 -125 -116 -112 -122 -170 -154 -163
0 0 0 0 0 0 -3 0 0 0 -3 0 0 0 0 -40 -47 -54 -93 -104 -73 -64 -86 -138 -133 -139 -127 -120 -140 -167 -144 -216
0 0 0 0 0 -3 -7 -7 -3 0 0 0 0 0 0 -50 -17 -40 -59 -83 -94 -75 -92 -136 -142 -199 -175 -160 -172 -205 -196 -180
0 0 0 0 0 -4 -6 -5 -3 -2 -2 -38 -36 -50 -47 -43 -16 -35 -40 -70 -103 -99 -115 -149 -140 -156 -155 -186 0 0 0 0
0 0 0 0 -1 -11 -3 -6 -5 -6 -2 -1 -23 -53 -34 -45 -34 -40 -67 -77 -112 -114 -135 -144 -127 -137 -136 -187 0 0 0 0
0 0 0 -5 -4 -6 -5 -4 -5 -5 -4 0 0 0 0 0 -34 -69 -110 -107 -144 -126 -158 -140 -127 -135 -139 -167 -193 -120 0 0
0 0 0 0 0 0 -14 -3 -17 -14 -6 0 0 0 0 0 0 -97 -100 -151 -155 -154 -133 -130 -121 -140 -155 -150 -136 -130 -102 -61
-4 -15 -14 -7 -2 -5 -14 -25 -28 -12 0 0 0 0 0 0 0 -61 -114 -138 -152 -137 -116 -119 -125 -123 -92 -125 0 -106 -73 -60
-5 -28 -12 -4 -32 -11 -23 -26 0 0 0 0 0 0 0 0 0 0 -162 -127 -144 -93 -90 -132 -118 0 -52 0 -118 -87 -62 -54
-8 -6 -5 -43 0 0 -35 -29 0 -14 0 0 0 0 0 0 0 -177 -142 -137 -102 -71 -102 -84 -104 0 -107 -108 -94 -78 -54 -49
-4 -12 -4 -4 -9 -36 -48 -38 0 0 0 0 0 0 -11 -8 -53 -115 -110 -82 -82 -102 -87 -67 -73 -76 -93 -89 -76 -56 -55 -57
-15 -4 -4 -31 -26 0 0 -5 0 0 0 0 0 -12 -58 -74 -115 -95 -75 -80 -85 -62 -60 -52 -47 -53 -62 -62 -54 -44 -33 -48
-9 -4 -4 -32 0 0 -42 0 0 0 0 0 -21 -18 -40 -64 -56 -69 -64 -64 -60 -42 -38 -33 -46 -57 -56 -51 -54 -33 -18 -23
-9 -12 -113 0 -6 0 0 0 0 -88 -67 -23 -14 -15 -34 -41 -46 -54 -45 -43 -33 -28 -23 -32 -49 -93 -78 -59 -23 -15 -17 -37
0 -49 0 0 0 0 0 0 -154 -175 -149 -71 -45 -44 -56 -61 -71 -69 -63 -52 -53 -48 -47 -56 -78 -98 -92 -43 -33 -58 -47 -54
0 0 0 0 0 0 0 0 0 0 -138 -74 -61 -80 -92 -132 -115 -100 -92 -94 -96 -92 -86 -79 -96 -87 -82 -85 -96 -59 -49 -43
0 0 0 0 0 0 0 0 0 -100 -93 -93 -87 -110 -7 -82 -107 -97 -102 -115 -103 -119 -97 -96 -97 -88 -89 -83 -65 -46 -29 -19
0 0 0 0 0 0 0 0 0 -103 -118 -91 -85 -47 -67 -92 -108 -201 -117 -109 -98 -92 -91 -64 -56 -52 -71 -71 -63 -43 -35 -27
Wind_Speed
4 1 3 2 3 13 15 15 23 21 15 23 14 15 13 11 6 10 9 10 10 8 6 5 3 5 7 10 13 17 19 19
7 3 8 6 1 8 8 16 15 11 19 16 15 18 16 12 6 7 9 10 9 8 6 4 1 3 5 9 13 17 19 19
8 10 8 9 7 8 16 17 22 16 14 11 19 17 18 16 5 4 9 10 10 8 7 5 2 2 4 8 13 17 19 20
13 13 18 6 5 5 9 11 13 22 21 14 13 16 18 17 7 1 9 10 9 9 8 6 3 2 5 9 13 17 20 20
15 15 14 13 12 9 7 15 20 20 17 15 16 18 19 16 8 3 4 8 9 10 9 7 4 2 6 9 13 17 20 20
20 19 18 16 13 11 12 14 17 12 21 24 25 25 22 20 14 8 5 8 9 10 9 8 5 4 6 10 13 16 19 19
26 29 24 19 14 12 13 15 23 27 27 30 28 30 29 26 21 13 9 9 11 11 10 8 5 4 6 9 13 15 18 18
25 25 25 26 23 17 15 18 21 25 28 27 29 32 31 29 24 16 11 10 11 10 10 8 6 4 7 10 13 14 16 17
23 20 22 27 19 15 15 17 20 24 29 32 34 31 29 30 24 18 12 9 9 11 10 7 5 4 7 10 11 13 15 16
24 19 27 23 18 19 20 18 19 25 30 31 31 30 28 23 19 18 13 9 8 9 7 6 4 4 7 9 10 12 14 15
27 27 28 21 21 19 19 21 20 26 28 27 25 24 20 15 13 12 7 1 5 6 5 4 3 4 6 8 10 12 14 15
26 36 38 30 18 15 18 29 25 20 25 21 21 21 13 13 12 10 7 4 3 4 3 2 3 5 7 10 11 13 14 16
33 35 33 16 14 13 23 25 21 24 22 19 17 19 15 11 11 10 7 4 3 3 2 2 5 8 11 12 12 12 13 16
29 32 31 14 15 23 23 23 23 24 25 20 14 15 13 11 9 8 6 4 1 1 4 7 11 13 14 14 13 12 14 16
24 23 16 15 20 23 26 29 32 33 30 24 18 15 11 8 7 7 6 5 5 7 10 14 16 17 18 17 15 14 15 16
23 20 23 25 26 29 32 34 34 31 27 22 16 12 11 8 8 8 8 9 10 13 17 21 21 20 20 18 16 14 14 16
28 27 29 24 26 30 31 30 29 25 20 14 9 8 8 7 9 10 11 13 16 19 22 23 23 21 19 16 14 15 17 18
31 23 26 27 31 30 29 28 24 19 13 9 7 7 7 8 10 11 13 16 19 21 23 23 22 21 19 17 16 17 18 18
24 27 29 31 29 26 27 27 22 17 13 9 8 8 10 11 13 14 16 18 20 22 22 21 20 20 19 18 18 18 19 19
Wind_Direction
173 289 60 57 342 320 326 326 290 299 323 300 316 320 320 309 282 201 208 193 184 180 174 149 107 50 40 28 20 12 10 11
270 286 299 315 81 331 329 319 333 344 312 315 327 319 318 317 288 208 204 198 194 193 190 172 128 30 30 21 12 6 6 7
270 263 261 281 280 310 319 321 312 327 343 345 322 326 326 327 331 200 191 196 199 201 194 188 174 23 14 6 3 2 4 2
272 280 279 257 240 253 301 326 328 310 313 344 342 337 333 332 350 150 180 191 199 201 195 195 205 316 345 352 354 357 358 358
258 274 285 277 275 279 285 312 310 312 326 340 333 330 326 329 340 328 191 188 193 197 203 213 217 284 329 343 348 352 355 356
252 266 273 268 270 265 278 291 308 312 312 316 318 319 317 315 312 304 254 208 205 203 207 212 230 280 321 337 346 351 352 354
263 269 275 275 268 266 268 285 295 301 308 310 314 312 310 307 306 292 269 229 216 210 209 215 238 282 320 335 343 347 348 350
267 270 272 274 276 272 277 289 296 302 306 320 316 307 305 303 303 297 273 246 228 220 212 219 235 273 316 331 338 343 346 347
268 273 275 271 270 270 282 293 297 302 309 315 314 315 313 307 305 296 288 262 232 215 206 214 229 278 313 329 337 341 344 346
273 274 268 282 290 282 285 294 300 308 313 317 317 319 317 318 312 307 293 268 232 198 199 210 234 288 316 328 334 338 341 343
267 270 277 288 288 288 285 292 307 310 315 321 327 329 332 346 347 345 344 337 172 176 192 200 259 293 316 323 326 333 335 338
273 270 272 283 291 291 301 293 306 314 320 325 333 328 341 359 3 8 18 53 123 158 177 238 285 304 309 314 317 322 329 335
268 272 276 291 297 304 288 300 316 318 321 322 325 324 339 350 356 2 16 37 98 137 209 279 313 312 305 307 308 314 327 333
270 274 272 294 298 286 303 311 317 317 317 314 319 325 326 328 340 354 359 4 24 322 308 315 320 318 309 305 303 312 322 328
276 288 300 302 300 304 305 303 303 305 306 307 303 309 321 323 334 341 344 341 334 319 318 322 324 323 318 314 312 309 316 322
284 288 293 299 301 304 305 302 301 302 300 302 297 302 315 322 330 336 335 333 330 326 323 323 324 323 321 322 323 318 318 323
283 290 293 299 307 307 307 309 309 310 306 299 291 297 310 321 329 332 332 331 329 325 324 325 327 329 330 331 330 326 325 326
286 297 295 298 305 307 309 312 317 318 318 316 306 306 317 324 330 330 330 330 328 327 326 327 329 330 332 338 336 332 330 329
293 298 298 299 304 312 312 313 315 316 316 315 315 314 314 319 323 325 328 329 330 331 331 332 333 335 337 338 336 334 332 333